Погода в Полтаве

Погода в Полтаве : погода сейчас, прогноз погоды и архив. Всё, что Вы хотите узнать о погоде в Полтаве!

Поиск расширенной информации на нашем сайте:

Полезная информация:

Другие новости

Новости СМИ2

Главная страница сайта

Новости сайта

03.07.2017

Напоминаем, что на нашем специализированном сайте Метеоцентр.Азия вы можете получить высокодетализированные автоматические прогнозы погоды по пунктам России, СНГ и мира в авиационном формате (включающие направление и скорость ветра, видимость, явления погоды, количество и форму облачности, нижнюю и верхнюю границу облачности).

Рекомендуем:

Погода в Полтаве - сегодня

Время (UTC), дата Ветер
(°,м/с) 
Видим.   Явления Облачность Т
(°С)
Тd
(°С)
f(%) Тe
(°С)
Pmin
(гПа)
dP
(гПа)
Po
(мм)
O2
(г/м3)
Тmin Tmax R s Состояние
почвы
09 15.09.19 260 (З) 10 км    9/8 1000 м верхняя 
[Cu hum|Ci fib]
+18.2 +2.1 34 +19  1023.4  -0.9  753  284           
12 15.09.19 260 (З) 10 км    9/3 1000 м верхняя 
[Cu hum|Ci fib]
+19.6 +1.6 30 +20  1021.7  -1.6  752  283           
15 15.09.19 270 (З) 10 км    6/0 верхняя 
[Ci fib]
+19.6 +0.9 29 +20  1020.2  -1.5  751  282           
18 15.09.19 тихо ()   10 км    4/0 верхняя 
[Ci fib]
+15 +2.7 44 +15  1019.6  -0.9  750  286           
21 15.09.19 210 (ЮЗ) 10 км    ясно 
+13.8 +3.1 48 +15  1018.1  -1.5  749  287           
00 16.09.19 240 (ЮЗ) 10 км    ясно 
+13.6 +4.2 53 +14  1016.3  -1.8  748  286           
03 16.09.19 220 (ЮЗ) 10 км    8/0 верхняя 
[Cc]
+12.1 +2.5 52 +13  1014.3  -2.1  746  288           
06 16.09.19 230 (ЮЗ) 10 км    3/0 верхняя 
[Ci]
+15.8 +3.7 44 +16  1012.8  -1.2  745  283  +11.7        мокрая 
09 16.09.19 260 (З) 10 км    8/0 верхняя 
[Ci]
+22.4 +4.3 31 +22  1010.8  -1.5  744  277           
12 16.09.19 260 (З) 10 км    6/0 средняя, верхняя 
[Sc|Ac trans|Ci fib]
+24.6 +1.4 22 +25  1008.7  -2  743  274      270     
15 16.09.19 220 (ЮЗ) 10 км    8/4 1000 м средняя 
[Sc|Ac trans]
+23.8 +5.8 31 +24  1007.5  -1.2  742  274           
18 16.09.19 260 (З) 10 км    10/8 1000 м средняя 
[Sc|Ac trans]
+21.2 +6.8 39 +21  1008.2  0.5  742  276    +25.4       
21 16.09.19 240 (ЮЗ) 10 км    10/9 1000 м средняя 
[Sc|Ac und]
+17.8 +6.3 47 +19  1008.2  -0.2  742  280           
00 17.09.19 250 (З) 10 км    9/9 1000 м средняя 
[Sc|Ac trans]
+16.2 +5.9 50 +17  1007.8  -0.5  742  281           
03 17.09.19 270 (З) 10 км    9/4 1000 м средняя, верхняя 
[Sc|Ac trans|Ci]
+13.4 +5.1 57 +14  1008  742  284           
06 17.09.19 270 (З) 10 км  {ливн. осадки}  10/8 600 м средняя 
[Sc|Ac und]
+13.6 +5.1 56 +15  1008.9  0.9  742  284  +13    0.0     
09 17.09.19 240 (ЮЗ) 10 км    10/4 600 м средняя 
[Sc|Ac As]
+16.2 +3.1 41 +17  1008.7  742  282           
12 17.09.19 210 (ЮЗ) 10 км    9/8 600 м верхняя 
[Sc|Cs]
+18.6 +4.5 39 +19  1007  -1.5  741  279           
15 17.09.19 260 (З) 10 км    6/6 600 м 
[Sc]
+18.7 +1.9 32 +19  1006.2  -0.8  741  279           
18 17.09.19 220 (ЮЗ) 10 км    ясно 
+14.4 +2.3 44 +16  1007.3  0.8  741  283    +20.7       
21 17.09.19 210 (ЮЗ) 10 км    8/0 средняя, верхняя 
[Ac trans|Ci fib]
+12 +2.4 52 +13  1007  -0.4  741  286           
00 18.09.19 180 (Ю) 10 км    5/0 средняя 
[Ac trans]
+10.8 +5.6 70 +12  1005.6  -1.5  740  286           
03 18.09.19 200 (Ю) 10 км    9/9 600 м 
[Sc]
+11 +6.1 72 +11  1004.3  -1.2  739  285           
06 18.09.19 200 (Ю) 4000 м  слаб. ливневой дождь  10/10 300 м кучево-дожд. 
[Cb cap]
+11.4 +10 91 +12  1004  -0.3  739  284  +10.4       
09 18.09.19 230 (ЮЗ) 10 км  {ливн. осадки}  9/9 600 м кучево-дожд. 
[Cb cap]
+13.8 +8.2 69 +13  1003.2  -0.6  738  282           
Время (UTC), дата Ветер
(°,м/с) 
Видим.   Явления Облачность Т
(°С)
Тd
(°С)
f(%) Тe
(°С)
Pmin
(гПа)
dP
(гПа)
Po
(мм)
O2
(г/м3)
Тmin Tmax R s Состояние
почвы

Для получения пояснительной информации подведите курсор к названию столбца.

ПОГОДА в Полтаве - архив

Всё, что Вы хотите узнать о погоде в Полтаве - удобно и подробно!

Выберите нужную дату (начиная с 1 января 2018* года) и нажмите кнопку "Найти".
Будут отображены архивные сводки погоды по пункту Полтава, начиная с указанной даты.


Отображать данные в формате CSV (для использования в таблицах Excel)


Внимание! Наш архив погоды предназначен исключительно для личного некоммерческого использования в познавательных целях. Если Вам необходимы официальные справки о состоянии погоды (для производственных, юридических, коммерческих и т.п. целей), обращайтесь в органы Росгидромета.

*Примечание: данная дата относится к архиву по метеостанциям СССР (Россия, СНГ, Балтия).
Архив по метеостанциям Зарубежной Европы и Азии (кроме Китая) хранится 10 дней, по другим регионам земного шара (Китай, Африка, Америка, Австралия, Океания) - 1 день.

Полтава - район местоположения метеостанции


Название, широта, долгота, высота метеостанции:
Полтава 49.6°ш. 34.6°д. 160 м над ур. моря [Украина]

Дополнительная информация

В oтличие oт бoльшинства пoгoдных сайтoв мы публикуем пoдрoбную метеoинфoрмацию в детальнoм прoфессиoнальнoм фoрмате.

Характеристики температуры и влажнoсти вoздуха измеряются на высoте 2 м в тени вдали oт зданий и деревьев.
Скoрoсть ветра измеряется на высoте 10 м (на урoвне рoста челoвека скoрoсть ветра ниже в 1.5-2 раза). Если метеoстанция нахoдится в гoрoде или в лесу, тo скoрoсть ветра занижена на 2-4 м/с пo сравнению с oткрытым местoм. Скoрoсть ветра над акватoриями крупных рек и oзёр, а также на вершинах хoлмoв на 2-5 м/с выше, чем в oбычных услoвиях.
Атмoсфернoе давление в разных тoчках местнoсти мoжет значительнo oтличаться oт давления на метеoстанции, в зависимoсти oт услoвий рельефа (при пoдъёме на 10 м давление пoнижается примернo на 1 мм рт.ст.).